Regional Weather Roundup
Issued by NWS Kansas City/Pleasant Hill, MO

Home | Current Version | Previous Version | Graphics & Text | Print | Product List | Glossary Off
Versions: 1 2 3 4 5 6 7 8 9 10 11 12 13 14 15 16 17 18 19 20 21 22 23 24 25 26 27

000
ASUS43 KEAX 220310
RWREAX

WEATHER ROUNDUP FOR EASTERN KANSAS AND NORTHWEST MISSOURI
NATIONAL WEATHER SERVICE KANSAS CITY/PLEASANT HILL MO
1000 PM CDT MON AUG 21 2017

KSZ040-057-103>105-MOZ028-029-037-043-220400-
...KANSAS CITY METROPOLITAN AREA...

CITY           SKY/WX    TMP DP  RH WIND       PRES   REMARKS
K.C. INTL      TSTM      69  68  96 N7        30.01F FOG
K.C. DOWNTOWN  TSTM      70  70 100 N20G25    29.99R FOG
LEES SUMMIT    MOCLDY    77  72  84 N23G32    30.02R
OLATHE - IXD   TSTM      71  69  93 VRB5G26   29.99R FOG
OLATHE - OJC   TSTM      72  71  97 N17       30.01R
LAWRENCE       TSTM      70  70 100 E3        29.98R FOG

$$

MOZ001>008-011>017-020>025-030>033-038>040-044>046-053-054-220400-
...NORTHERN AND CENTRAL MISSOURI...

CITY           SKY/WX    TMP DP  RH WIND       PRES   REMARKS
ST. JOSEPH     TSTM      70  69  97 S8        29.99R
WARRENSBURG    PTCLDY    77  73  88 S5        29.98R
WHITEMAN AFB   MOCLDY    77  77 100 S6        29.96R
CLINTON        CLEAR     79  75  89 S7        29.98R
SEDALIA        CLOUDY    74  72  93 S7        29.98R
WARSAW         NOT AVBL
CHILLICOTHE      N/A     71  71 100 NW3       29.98R
KIRKSVILLE     CLOUDY    73 N/A N/A CALM      29.97R

$$

MOZ041-047>049-056>058-063>065-088>090-097-220400-
...EASTERN AND SOUTHERN MISSOURI...

CITY           SKY/WX    TMP DP  RH WIND       PRES   REMARKS
ST. LOUIS INTL TSTM      83  73  72 S9        30.00F
SPIRIT OF STL  CLOUDY    80  75  84 CALM      29.98F
COLUMBIA       CLEAR     73  71  93 S6        29.98S
JEFFERSON CITY CLEAR     77  76  96 CALM      29.96F
ROLLA          CLEAR     76  73  91 S7        30.03F
OSAGE BEACH    CLEAR     79  75  87 S6        30.00F
SPRINGFIELD    CLEAR     79  74  84 S9        30.03S
BRANSON        CLEAR     77  72  83 S6        30.08S
JOPLIN         CLEAR     83  76  79 S14       30.02R HX  91
WEST PLAINS    CLEAR     80  72  76 S8        30.08F

$$

IAZ060-094-KSZ022-034>040-054-083-096-NEZ052-066-093-220400-
...KANSAS...SOUTHEAST NEBRASKA AND IOWA...

CITY           SKY/WX    TMP DP  RH WIND       PRES   REMARKS
TOPEKA         TSTM      72  72 100 N10       29.98R VSB 1
MANHATTAN      CLOUDY    76  73  91 E3        29.93R
EMPORIA        RAIN      74  71  91 VRB3      29.95F FOG
CHANUTE        CLOUDY    82  74  76 S13       29.97R
WICHITA        PTCLDY    77  74  90 S9        29.95R
OMAHA          RAIN      67  62  84 E10       30.00R
LINCOLN        CLOUDY    77  73  87 NE3       29.94R
FALLS CITY     LGT RAIN  71  69  93 SE7       29.92F
LAMONI         LGT RAIN  67  66  97 E7        30.00R
DES MOINES     LGT RAIN  67  65  93 NW9       29.98R

$$





USA.gov is the U.S. government's official web portal to all federal, state and local government web resources and services.